Meteo Giornale » Osservazioni meteo Italia » Reggio Calabria

ore: 15:50 - Osservazioni Meteo Reggio Calabria
Lat. 38° 4' N Lon. 15° 39' E Alt. 11 metri s.l.m.

coperto_pioggia Europe/Rome

14 °C

Pioviggine

Temp. 24 Ore

12 °C

17 °C

Sud/Sud-Ovest

11.1 Km/h

Dew point 11 °C

Umidità 82 %

Visibilità  10 Km

Il sole sorge alle ore 06:20

Il sole tramonta alle ore 19:34

Data e Ora Cielo e Fenomeni T °C DP °C Um. % Pres. hPa Vis. km Vento km/h
Oggi h: 15:50 coperto_pioggia Pioviggine 14 11 82 1020 10 S/SO 11.1
Oggi h: 15:20 coperto_pioggia Pioviggine 14 11 82 1020 10 S/SO 14.8
Oggi h: 14:50 coperto_pioggia Pioggia Debole 14 11 82 1020 10 S/SO 13
Oggi h: 14:20 coperto_pioggia Pioggia Debole 15 10 72 1020 10 SO 9.3
Oggi h: 13:50 coperto_pioggia Pioviggine Leggera 15 9 67 1020 10 O/SO 13
Oggi h: 13:20 molto_nuvoloso Molto Nuvoloso 16 9 63 1020 10 N 13
Oggi h: 12:50 molto_nuvoloso Molto Nuvoloso 16 9 63 1020 10 S/SO 18.5
Oggi h: 12:20 molto_nuvoloso Molto Nuvoloso 16 9 63 1020 10 S/SO 14.8
Oggi h: 11:50 molto_nuvoloso Molto Nuvoloso 16 8 58 1020 10 S/SO 16.7
Oggi h: 11:20 molto_nuvoloso Molto Nuvoloso 17 9 59 1020 10 N 11.1
Oggi h: 10:50 molto_nuvoloso Molto Nuvoloso 16 9 63 1020 10 S/SO 18.5
Oggi h: 10:20 molto_nuvoloso Molto Nuvoloso 16 8 58 1019 10 N 13
Oggi h: 09:50 molto_nuvoloso Molto Nuvoloso 16 8 58 1019 10 SO 7.4
Oggi h: 09:20 coperto Coperto 15 8 62 1019 10 O 7.4
Oggi h: 08:50 coperto Coperto 15 8 62 1019 10 N 7.4
Oggi h: 08:20 molto_nuvoloso Molto Nuvoloso 14 8 67 1019 10 O 7.4
Oggi h: 07:50 molto_nuvoloso Molto Nuvoloso 14 9 71 1019 10 N 7.4
Oggi h: 07:20 coperto Coperto 13 9 76 1019 10 N 11.1
Oggi h: 06:50 molto_nuvoloso Molto Nuvoloso 13 8 71 1019 10 N 9.3
Oggi h: 06:20 molto_nuvoloso Molto Nuvoloso 13 8 71 1019 10 N 9.3
Oggi h: 05:50 molto_nuvoloso Molto Nuvoloso 14 7 62 1019 10 E 11.1
Oggi h: 05:20 coperto Coperto 13 8 71 1019 10 N 5.5
Oggi h: 04:50 molto_nuvoloso Molto Nuvoloso 13 8 71 1019 10 S/SO 9.3
Oggi h: 04:20 coperto Coperto 13 8 71 1019 10 N 5.5
Oggi h: 03:50 molto_nuvoloso Molto Nuvoloso 13 8 71 1019 10 N 5.5
Oggi h: 03:20 molto_nuvoloso Molto Nuvoloso 13 8 71 1019 10 N 3.7
Oggi h: 02:50 molto_nuvoloso Molto Nuvoloso 12 7 71 1019 10 N 5.5
Oggi h: 01:50 molto_nuvoloso Molto Nuvoloso 13 7 66 1020 10 E 7.4
Oggi h: 01:20 nuvoloso Nuvoloso 12 8 76 1020 10 N 3.7
Oggi h: 00:50 molto_nuvoloso Molto Nuvoloso 13 8 71 1020 10 S/SO 7.4
Ieri h: 23:50 molto_nuvoloso Molto Nuvoloso 13 8 71 1020 10 N 5.5
Ieri h: 23:20 molto_nuvoloso Molto Nuvoloso 12 8 76 1020 10 E/SE 11.1
Ieri h: 22:50 molto_nuvoloso Molto Nuvoloso 13 8 71 1020 10 N 7.4
Ieri h: 22:20 nuvoloso Nuvoloso 13 8 71 1020 10 E 9.3
Ieri h: 21:50 molto_nuvoloso Molto Nuvoloso 14 8 67 1020 10 N 9.3
Ieri h: 21:20 molto_nuvoloso Molto Nuvoloso 14 9 71 1020 10 N 7.4
Ieri h: 20:50 molto_nuvoloso Molto Nuvoloso 14 9 71 1020 10 N 9.3
Ieri h: 20:20 molto_nuvoloso Molto Nuvoloso 14 8 67 1019 10 N 9.3
Ieri h: 19:50 molto_nuvoloso Molto Nuvoloso 14 7 62 1019 10 NO 7.4
Ieri h: 19:20 molto_nuvoloso Molto Nuvoloso 15 7 58 1019 10 N/NO 7.4
Ieri h: 18:50 coperto Coperto 15 7 58 1019 10 NO 9.3
Ieri h: 18:20 molto_nuvoloso Molto Nuvoloso 15 7 58 1019 10 N 13
Ieri h: 17:50 coperto Coperto 16 7 55 1019 10 N 9.3
Ieri h: 17:20 coperto Coperto 16 7 55 1019 10 O/SO 11.1